TimeEST,TemperatureF,Dew PointF,Humidity,Sea Level PressureIn,VisibilityMPH,Wind Direction,Wind SpeedMPH,Gust SpeedMPH,PrecipitationIn,Events,Conditions,WindDirDegrees,DateUTC
12:01 AM,42.8,32.0,66,30.40,0.8,Calm,Calm,-,N/A,,Haze,0,2013-01-09 05:01:00
12:31 AM,42.8,32.0,66,30.39,2.5,Calm,Calm,-,N/A,,Haze,0,2013-01-09 05:31:00
12:38 AM,42.8,32.0,66,30.39,3.0,Calm,Calm,-,N/A,,Haze,0,2013-01-09 05:38:00
12:49 AM,42.8,32.0,66,30.39,1.8,Calm,Calm,-,N/A,,Haze,0,2013-01-09 05:49:00
12:54 AM,43.0,32.0,65,30.39,1.0,Calm,Calm,-,N/A,,Haze,0,2013-01-09 05:54:00
1:01 AM,42.8,32.0,66,30.39,0.8,Calm,Calm,-,N/A,,Haze,0,2013-01-09 06:01:00
1:07 AM,44.6,32.0,61,30.39,2.0,Calm,Calm,-,N/A,,Haze,0,2013-01-09 06:07:00
1:11 AM,42.8,32.0,66,30.39,0.8,Calm,Calm,-,N/A,,Haze,0,2013-01-09 06:11:00
1:25 AM,41.0,33.8,76,30.39,2.0,NW,5.8,-,N/A,,Haze,320,2013-01-09 06:25:00
1:28 AM,42.8,33.8,70,30.39,1.0,NW,5.8,-,N/A,,Haze,320,2013-01-09 06:28:00
1:36 AM,42.8,33.8,70,30.39,0.8,NW,5.8,-,N/A,,Haze,310,2013-01-09 06:36:00
1:41 AM,41.0,33.8,76,30.39,1.2,NW,4.6,-,N/A,,Haze,320,2013-01-09 06:41:00
1:54 AM,41.0,34.0,76,30.39,0.5,NW,3.5,-,N/A,,Haze,320,2013-01-09 06:54:00
2:30 AM,44.6,33.8,66,30.39,5.0,Calm,Calm,-,N/A,,Haze,0,2013-01-09 07:30:00
2:33 AM,44.6,33.8,66,30.39,1.5,Calm,Calm,-,N/A,,Haze,0,2013-01-09 07:33:00
2:41 AM,44.6,33.8,66,30.39,0.2,Calm,Calm,-,N/A,,Haze,0,2013-01-09 07:41:00
2:54 AM,45.0,34.0,65,30.39,0.8,Calm,Calm,-,N/A,,Haze,0,2013-01-09 07:54:00
3:54 AM,41.0,34.0,76,30.40,0.2,Calm,Calm,-,N/A,,Haze,0,2013-01-09 08:54:00
4:54 AM,41.0,34.0,76,30.40,0.2,Calm,Calm,-,N/A,,Haze,0,2013-01-09 09:54:00
5:54 AM,39.0,34.0,82,30.39,0.2,Calm,Calm,-,N/A,,Haze,0,2013-01-09 10:54:00
6:16 AM,39.2,33.8,81,30.39,2.0,Calm,Calm,-,N/A,,Haze,0,2013-01-09 11:16:00
6:32 AM,41.0,33.8,76,30.40,6.0,Calm,Calm,-,N/A,,Haze,0,2013-01-09 11:32:00
6:54 AM,41.0,34.0,76,30.41,4.0,Calm,Calm,-,N/A,,Haze,0,2013-01-09 11:54:00
7:44 AM,39.2,33.8,81,30.43,2.0,NW,3.5,-,N/A,,Haze,310,2013-01-09 12:44:00
8:54 AM,48.9,33.1,54,30.44,7.0,Calm,Calm,-,N/A,,Clear,0,2013-01-09 13:54:00
11:54 AM,66.0,30.0,26,30.39,10.0,South,3.5,-,N/A,,Clear,180,2013-01-09 16:54:00
12:54 PM,70.0,30.0,23,30.37,10.0,Variable,5.8,-,N/A,,Clear,0,2013-01-09 17:54:00
1:54 PM,71.1,30.0,22,30.34,10.0,SW,5.8,-,N/A,,Clear,230,2013-01-09 18:54:00
2:54 PM,70.0,30.0,23,30.35,10.0,SSW,9.2,-,N/A,,Clear,200,2013-01-09 19:54:00
3:54 PM,66.9,30.0,25,30.36,10.0,SSW,3.5,-,N/A,,Clear,210,2013-01-09 20:54:00
4:54 PM,64.9,30.9,28,30.36,10.0,SSW,3.5,-,N/A,,Clear,210,2013-01-09 21:54:00
5:54 PM,62.1,30.9,31,30.37,10.0,SW,3.5,-,N/A,,Clear,220,2013-01-09 22:54:00
6:54 PM,62.1,30.9,31,30.35,10.0,South,5.8,-,N/A,,Clear,190,2013-01-09 23:54:00
7:54 PM,57.9,30.9,36,30.35,10.0,SW,6.9,-,N/A,,Clear,220,2013-01-10 00:54:00
8:54 PM,57.9,30.0,35,30.36,10.0,SSW,5.8,-,N/A,,Clear,210,2013-01-10 01:54:00
9:54 PM,57.0,30.0,36,30.36,10.0,WSW,4.6,-,N/A,,Clear,240,2013-01-10 02:54:00
10:54 PM,57.0,30.9,37,30.37,10.0,WSW,4.6,-,N/A,,Clear,250,2013-01-10 03:54:00
11:54 PM,57.0,30.0,36,30.38,10.0,WSW,8.1,-,N/A,,Clear,240,2013-01-10 04:54:00